www.pogodaiklimat.ru

Погода и климат >> Архив погоды >> Россия >> Калининградская область >> Рыбачий


ПОГОДА в Рыбачьем

  • Прогноз погоды в Рыбачьем
  • Монитор погоды в Рыбачьем
  • Климат города

АРХИВ ПОГОДЫ в Рыбачьем

Время (UTC), дата Ветер
(напр.,м/с)
 
Видим.   Явления Облачность Т
(С)
Тd
(С)
f
(%)
Тe
(С)
Тes
(С)
Комфортность P
(гПа)
Po
(гПа)
Тmin
(С)
Tmax
(С)
R
(мм)
R24
(мм)
S
(см)
15 8.11 ЮВ 3-4
{4}
н/о н/о +6.8 +6.7 99 +4 +4 1020.4 1019.9
18 8.11 В 2-4
{5}
н/о н/о +6.8 +6.8 100 +4 +4 1020.7 1020.2
21 8.11 ЮВ 2-4
{4}
н/о н/о +6.5 +6.5 100 +4 +4 1020.9 1020.4
00 9.11 ЮВ 2-3
{4}
н/о н/о +6.1 +6.1 100 +3 +3 1020.6 1020.1
03 9.11 В 2-3
{3}
н/о н/о +5.3 +5.3 100 +2 +2 1020.3 1019.8 +5.3
06 9.11 В 2-4
{4}
н/о н/о +5.0 +5.0 100 +2 +2 1020.4 1019.9 +4.8
09 9.11 В 3-4
{4}
н/о н/о +5.6 +5.6 100 +2 +2 1020.5 1020.0
12 9.11 В 2-3
{4}
н/о н/о +6.1 +6.1 100 +3 +3 1019.8 1019.3
15 9.11 В 2-3
{3}
н/о н/о +6.6 +6.6 100 +4 +4 1019.0 1018.5
18 9.11 В 2-3
{3}
н/о н/о +7.0 +7.0 100 +5 +5 1018.7 1018.2 +7.0
21 9.11 ЮВ 2-3
{3}
н/о н/о +7.9 +7.9 100 +6 +6 1018.5 1018.0
00 10.11 ЮВ 2-3
{3}
н/о н/о +7.9 +7.9 100 +6 +6 1017.8 1017.4
03 10.11 В 3-4
{4}
н/о н/о +7.8 +7.8 100 +5 +5 1016.8 1016.3 +6.5
06 10.11 В 3-4
{5}
н/о н/о +7.8 +7.8 100 +5 +5 1016.1 1015.6 +7.0
09 10.11 В 3-4
{5}
н/о н/о +8.1 +8.1 100 +5 +5 1016.2 1015.7
12 10.11 В 4-5
{6}
н/о н/о +7.9 +7.9 100 +4 +4 1015.6 1015.1
18 10.11 ЮВ 3-5
{6}
н/о н/о +7.9 +7.9 100 +5 +5 1016.2 1015.7 +8.3
21 10.11 ЮВ 4-6
{6}
н/о н/о +7.5 +7.5 100 +4 +4 1017.3 1016.8
00 11.11 ЮВ 5-7
{8}
н/о н/о +6.7 +6.7 100 +2 +2 1017.2 1016.7
03 11.11 ЮВ 5-7
{8}
н/о н/о +6.4 +6.4 100 +2 +2 1017.4 1016.9 +6.3
06 11.11 В 6-9
{9}
н/о н/о +5.7 +5.7 100 +1 +1 1017.9 1017.4 +5.8
09 11.11 В 6-10
{10}
н/о н/о +5.3 +5.3 100 0 0 1018.6 1018.1
12 11.11 ЮВ 7-11
{12}
н/о н/о +5.8 +5.2 96 0 0 1018.3 1017.8
15 11.11 ЮВ 6-10
{12}
н/о н/о +6.1 +5.4 95 +1 +1 1018.5 1018.0
18 11.11 ЮВ 6-11
{12}
н/о н/о +6.2 +5.2 93 +1 +1 1019.0 1018.5 +6.2
21 11.11 ЮВ 5-9
{11}
н/о н/о +6.8 +6.0 95 +3 +3 1019.4 1018.9
00 12.11 ЮВ 6-8
{10}
н/о н/о +7.2 +6.3 94 +3 +3 1020.2 1019.7
03 12.11 ЮВ 6-9
{11}
н/о н/о +7.1 +6.4 95 +2 +2 1020.5 1020.0 +6.1
06 12.11 ЮВ 6-8
{10}
н/о н/о +7.4 +6.9 97 +3 +3 1021.3 1020.8 +6.2
09 12.11 ЮВ 6-9
{10}
н/о н/о +7.6 +7.0 96 +3 +3 1022.0 1021.5
15 12.11 ЮВ 4-7
{7}
н/о н/о +8.1 +7.5 96 +5 +5 1022.0 1021.5
21 12.11 ЮВ 7-10
{10}
н/о н/о +8.3 +7.6 95 +4 +4 1020.4 1020.0
00 13.11 ЮВ 7-11
{11}
н/о н/о +8.2 +7.5 95 +4 +4 1019.5 1019.0
03 13.11 ЮВ 7-10
{11}
н/о н/о +8.1 +7.5 96 +3 +3 1018.7 1018.2 +8.0
06 13.11 Ю 4-7
{10}
н/о н/о +8.1 +7.7 97 +5 +5 1019.0 1018.5 +8.0
09 13.11 Ю 3-5
{7}
н/о н/о +8.5 +8.1 97 +6 +6 1019.0 1018.5
12 13.11 Ю 2-3
{6}
н/о н/о +8.4 +8.2 99 +6 +6 1018.2 1017.7
15 13.11 Ю 2-3
{5}
н/о н/о +8.4 +8.4 100 +6 +6 1017.9 1017.4
18 13.11 З 3-6
{6}
н/о н/о +9.7 +9.7 100 +7 +7 1018.2 1017.7 +9.7
21 13.11 З 4-8
{9}
н/о н/о +9.7 +9.4 98 +7 +7 1018.6 1018.1
00 14.11 З 4-6
{8}
н/о н/о +10.0 +9.6 97 +7 +7 1018.8 1018.3
03 14.11 З 3-6
{9}
н/о н/о +9.6 +8.9 95 +7 +7 1019.3 1018.8 +8.4
06 14.11 З 4-7
{8}
н/о н/о +9.8 +9.2 96 +7 +7 1020.1 1019.6 +9.4
12 14.11 З 3-5
{8}
н/о н/о +10.1 +8.8 92 +8 +8 1023.5 1023.0

 

Местоположение метеостанции Рыбачий (Калининградская область, Россия): широта 55.16 долгота 20.84 высота над уровнем моря 3 м.

В архиве по умолчанию представлена погода в Рыбачьем за последнюю неделю. Архивные данные за месяц целиком и за предыдущие месяцы, начиная с января 2011 года, Вы можете получить, выбрав интересующий диапазон дат из раскрывающегося списка и нажав кнопку "Ввод!".


*Определитесь, кто Вы:
робот инопланетянин человек

Внимание! Время в таблицах - всемирное. Для получения местного времени необходимо прибавить поправку, которая в Рыбачьем равна 2 ч.

Смотрите также архив погоды в соседних городах и на ближайших метеорологических станциях:

Погода в Nidoje (Литва) (21 км)
Погода в ?ilut? (Литва) (44 км)
Погода в Пионерском (Калининградская область, Россия) (46 км)
Погода в Калининграде (Калининградская область, Россия) (53 км)
Погода в Рыбном Порту (Калининградская область, Россия) (57 км)
Погода в Klaip?da (Литва) (65 км)
Погода в Советске (Калининградская область, Россия) (70 км)
Погода в Балтийске (Калининградская область, Россия) (84 км)
Погода в Черняховске (Калининградская область, Россия) (85 км)
Погода в Железнодорожном (Калининградская область, Россия) (93 км)

Пояснения к столбцам:

Ветер - указаны скорость ветра в м/с - средняя за 10 мин, порывы в срок и между сроками (в фигурных скобках) и направление, откуда дует ветер: С - северный, СВ - северо-восточный, В - восточный, ЮВ - юго-восточный, Ю - южный, ЮЗ - юго-западный, З - западный, СЗ - северо-западный.
Видимость - горизонтальная дальность видимости в метрах или километрах. При видимости от 1 до 10 км при отсутствии осадков обычно наблюдается дымка, при ухудшении видимости до 1 км и менее - туман. В сухую погоду видимость может ухудшаться дымом, пылью или мглою.
Явления - указаны атмосферные явления, наблюдавшиеся в срок или в последний час перед сроком; фигурными скобками обозначены явления, наблюдавшиеся между сроками (за 1-3 часа до срока); квадратными скобками обозначены град или гололедные отложения с указанием их диаметра в мм.
Облачность - указаны через наклонную черту общая и нижняя облачность в баллах и высота нижней границы облаков в метрах; квадратными скобками обозначены формы облаков: Ci - перистые, Cs - перисто-слоистые, Cc - перисто-кучевые, Ac - высококучевые, As - высокослоистые, Sc - слоисто-кучевые, Ns - слоисто-дождевые, Cu - кучевые, Cb - кучево-дождевые. Подробнее классификацию облаков см. в Атласе облаков (PDF).
T - Температура воздуха - температура, измеренная на высоте 2 м над землей.
Td - Температура точки росы - температура, при понижении до которой содержащийся в воздухе водяной пар достигнет насыщения.
f - Относительная влажность воздуха - влажноcть воздуха, измеренная на высоте 2 м над землей.
Te - Эффективная температура - температура, которую ощущает одетый по сезону человек в тени. Характеристика душности погоды. При расчете учитывается влияние влажности воздуха и скорости ветра на теплоощущения человека.
Tes - Эффективная температура на солнце - температура, которую ощущает человек, с поправкой на солнечный нагрев. Характеристика знойности погоды. Зависит от высоты солнца над горизонтом, облачности и скорости ветра. Ночью, в пасмурную погоду, а также при ветре 12 м/с и более поправка равна нулю.
P - Атмосферное давление - приведенное к уровню моря атмосферное давление.
Po - Атмосферное давление - измеренное на уровне метеостанции атмосферное давление.
Tmin - Минимальная температура - минимум температуры воздуха на высоте 2 м над землей.
Tmax - Максимальная температура - максимум температуры воздуха на высоте 2 м над землей.
R - Количество осадков - Количество выпавших осадков за период времени, мм. При наведении курсора мыши на число - период времени, за который выпало указанное количество осадков.
R24 - Количество осадков - Количество выпавших осадков за 24 часа, мм.
S - Снежный покров - Высота снежного покрова, см. При наведении курсора мыши на число - состояние снежного покрова и степень покрытия местности в баллах.